Location: Klinovec
(50.3970°N, 12.9600°E)
Time: 15:26:54
(UTC+01:00)

N. Korean satellite - Pass Details

Date: 15 November 2019
Orbit: 456 x 506 km, 97.2° (Epoch: 06 December)

Event Time Altitude Azimuth Distance (km) Brightness Sun altitude
Rises 17:53:47 0° 196° (SSW) 2,548 10.6 -14.3°
Reaches altitude 10° 17:56:07 10° 211° (SSW) 1,682 9.9 -14.7°
Maximum altitude 17:59:06 24° 267° (W) 1,072 9.2 -15.2°
Drops below altitude 10° 18:02:09 10° 322° (NW) 1,716 9.7 -15.6°
Sets 18:04:33 0° 337° (NNW) 2,612 10.5 -16.0°
